sat.trackr.live / text

‹ back to catalog

STARLINK-4718

NORAD 53773 · 2022-111A

PAYLOAD ACTIVE UNKNOWN

§ Identity

Operator
Country
US
Launch date
2022-09-11
Launch site
AFETR
Launch vehicle
Mass (kg)
RCS (m²)

Purposes: comms

External: N2YO · Heavens-Above · Gunter

§ Orbital elements

Epoch: 2026-09-20T07:10:26.978304Z

Period
94.01 min
Inclination
53.1597°
Eccentricity
0.0001199
Mean motion
15.31703130 rev/d
Perigee alt
469.9 km
Apogee alt
471.6 km
Semi-major
6,848.9 km
B*
1.6308e-5
RAAN
119.4245°
Arg perigee
92.7664°
Mean anomaly
267.3475°
Rev number
22,337

§ Raw data

STARLINK-47181 53773U 22111A   26263.29892336  .00000141  00000+0  16308-4 0  99902 53773  53.1597 119.4245 0001199  92.7664 267.3475 15.31703130223372

JSON: /api/v1/satellites/53773 · /tle

For live sub-satellite position, see the globe view (requires WebGL).

§ Visibility from observer

Set your observer location to see the next 7 days of passes ≥ 10°. The values pass through the URL so the page stays shareable.

No JS? Fill the form by hand. The geolocation button needs JavaScript.